Theta_e
311 312 312 312 312 312 313 314 313 311 309 308 307 307 306 306 306 306 305 305 307 308 308 308 308 307 307 309 312 314 314 315 316 318 317 316 316 314 310 311 312 313 314 313 313 313 313 313 313 313 315 315 314 316 315 313 313 317 320 318 315 316 316 317 318 316 316 317 314 311 311 314 314 311 310 310 311 313 312 312 312 310 311 309 309 307 310 325
311 312 311 311 312 312 312 313 313 312 309 308 307 306 306 306 306 306 305 305 306 307 308 308 308 307 308 310 313 313 314 315 316 317 317 316 316 314 311 311 313 314 314 313 313 314 313 314 313 313 315 315 314 316 316 314 314 318 320 317 316 319 317 315 317 315 315 315 314 312 311 312 314 313 311 313 314 313 313 314 312 311 313 309 310 309 312 325
310 311 311 311 312 311 311 311 312 311 310 308 306 306 305 305 305 305 305 306 307 307 308 308 307 308 309 311 313 313 314 315 315 315 315 315 316 314 311 313 314 314 314 314 314 313 313 313 312 313 315 314 313 315 317 314 314 316 317 317 318 319 315 313 314 314 312 312 314 312 310 311 313 312 311 314 314 314 314 315 314 314 314 312 313 313 317 326
310 310 310 311 311 311 311 311 311 311 310 308 307 306 305 305 305 305 306 306 307 307 308 308 307 308 310 312 313 313 314 313 314 315 314 314 314 312 312 314 315 315 314 314 314 313 313 312 313 314 315 315 313 314 315 313 314 315 315 317 316 314 315 313 311 311 309 309 313 312 311 312 312 310 312 314 314 315 315 315 315 315 315 314 314 316 320 326
310 309 309 310 310 310 310 310 310 311 310 308 307 306 306 306 305 305 306 307 307 307 308 307 308 310 312 314 314 314 313 310 313 314 313 312 312 311 313 315 315 316 315 314 314 313 312 313 314 315 315 315 314 314 313 311 312 314 313 314 312 312 315 313 309 310 308 309 311 312 312 313 311 311 312 313 315 316 315 315 315 314 314 313 315 319 321 324
310 309 309 310 310 310 310 310 310 310 309 308 308 306 306 306 305 305 306 307 307 307 308 308 310 311 313 314 313 314 314 310 312 314 312 311 311 313 315 315 316 316 315 314 313 313 313 313 314 316 315 314 314 314 313 309 310 315 314 311 310 311 314 311 309 310 308 310 312 312 313 312 311 313 312 312 315 315 313 312 312 312 310 311 317 320 321 323
309 308 309 309 309 310 309 310 310 310 310 309 308 307 307 306 305 306 306 307 307 308 308 309 311 312 314 314 313 315 316 314 313 313 311 311 312 314 315 316 316 315 314 314 313 313 314 313 314 315 315 314 313 313 312 310 310 315 315 312 310 309 311 309 308 308 307 310 311 310 311 312 313 314 310 310 314 314 310 308 309 309 308 309 316 320 321 323
308 308 309 308 309 310 309 310 310 311 311 310 310 308 307 306 306 306 306 307 308 309 309 310 311 312 314 314 315 316 316 316 314 312 311 312 313 314 316 316 316 314 314 314 313 314 314 314 314 313 314 313 313 313 311 312 314 316 315 312 311 309 309 308 306 307 307 309 308 309 312 312 312 311 310 312 314 313 310 308 308 308 308 308 313 318 322 324
308 308 308 308 309 309 308 309 310 310 310 310 310 308 307 306 306 306 307 307 308 310 310 311 312 313 314 314 315 314 314 317 314 311 312 313 314 315 316 316 315 314 314 313 312 313 313 314 314 313 314 312 312 313 311 313 314 314 314 312 312 311 309 308 308 308 308 309 308 311 314 311 309 308 312 314 314 311 308 308 308 308 309 309 310 314 321 324
309 308 308 309 309 308 308 309 309 310 309 310 310 308 307 306 307 307 308 309 310 311 311 312 313 314 314 313 314 311 314 318 314 311 312 313 314 315 316 316 315 315 314 313 312 313 314 314 313 313 314 313 312 312 311 313 313 311 312 312 312 311 309 309 311 310 309 310 309 312 314 311 309 309 314 315 310 307 308 309 308 308 310 310 310 311 315 320
309 309 309 309 309 308 309 309 309 309 309 310 309 308 307 306 308 309 310 311 311 312 312 313 313 314 314 314 313 310 316 319 314 311 312 312 314 315 316 316 315 315 314 314 312 311 312 312 311 313 314 313 313 312 311 311 311 310 312 314 313 312 311 310 312 311 310 311 309 312 314 311 309 311 316 314 307 306 309 311 310 309 311 311 310 310 311 313
310 310 309 309 310 309 309 309 309 309 309 309 308 307 307 307 309 309 311 311 311 312 313 313 314 314 314 313 313 315 318 318 313 311 311 312 314 315 316 316 315 314 314 315 314 311 311 311 311 313 314 313 314 314 312 309 309 311 312 316 315 314 314 312 312 310 311 313 309 310 314 314 313 313 315 312 307 308 309 311 311 311 311 311 310 309 310 311
311 311 310 310 310 310 310 309 310 310 310 309 307 306 307 309 310 310 311 312 312 313 313 314 315 314 313 311 314 317 319 317 313 311 312 313 314 315 315 315 314 314 315 315 313 312 311 311 313 313 312 313 314 312 311 310 310 313 313 315 317 316 315 313 311 310 312 312 308 311 314 316 317 316 315 310 307 309 310 312 313 312 311 311 310 309 310 311
312 311 311 310 311 311 311 310 311 311 310 308 307 307 308 310 311 311 311 312 312 313 314 314 314 313 311 312 315 317 319 317 314 312 313 313 314 314 314 314 314 314 314 314 313 312 311 312 313 313 311 312 312 311 313 313 312 314 314 315 317 315 315 313 310 311 314 311 309 312 313 316 319 317 314 308 307 309 312 313 314 313 312 310 311 310 310 311
313 312 311 311 311 311 311 312 311 311 310 308 307 308 309 310 311 311 312 312 313 314 314 315 314 313 310 311 314 316 317 317 314 312 313 313 314 314 314 314 315 314 314 313 313 312 312 313 314 314 311 309 311 314 316 315 314 314 313 315 317 314 315 315 310 310 314 311 309 313 314 316 318 317 312 306 306 308 311 313 313 312 312 311 311 310 311 311
313 313 312 312 312 311 311 312 312 311 309 307 308 309 309 310 311 312 313 313 314 315 315 315 313 312 309 311 313 314 316 316 314 313 313 313 315 315 314 314 314 314 314 313 313 313 313 314 312 312 312 312 314 317 317 316 315 315 314 315 317 315 315 315 311 308 310 311 311 313 315 316 317 315 311 306 307 309 311 313 313 313 312 311 311 310 311 311
314 313 312 312 312 311 310 310 311 311 309 308 309 310 310 311 312 314 314 314 314 314 313 313 311 310 309 310 311 312 314 316 314 314 313 313 315 314 314 314 313 313 314 314 314 314 314 313 311 312 314 313 315 317 316 314 314 316 316 315 316 315 314 314 314 310 308 311 314 313 314 316 317 316 314 310 308 309 311 313 314 314 313 312 312 311 311 311
316 315 314 312 312 311 310 310 310 310 309 309 310 312 312 313 314 315 315 313 312 311 310 311 309 309 309 308 310 312 313 315 314 313 313 313 313 314 314 313 312 314 315 316 315 315 315 314 314 316 316 314 315 317 315 313 314 315 316 315 314 314 314 314 315 312 309 311 314 314 314 315 316 316 316 314 311 310 311 313 313 313 313 313 312 312 312 311
317 316 316 314 314 312 310 310 310 310 309 310 312 313 313 314 314 314 314 312 310 309 309 310 309 310 310 309 312 314 314 314 313 313 312 312 313 313 314 313 315 316 316 317 316 314 315 316 316 317 318 316 316 317 315 315 316 316 317 316 314 314 313 315 315 310 309 312 314 315 315 316 316 316 316 316 313 311 312 312 312 312 312 312 312 313 313 312
318 318 317 316 316 314 313 312 311 310 310 312 313 311 311 312 312 312 312 312 310 309 311 311 309 311 312 311 313 314 314 313 314 314 312 312 313 314 314 314 317 317 316 319 318 313 313 318 318 318 318 318 317 316 315 314 314 316 318 316 316 316 314 315 315 310 308 313 316 316 316 316 316 316 316 316 315 313 313 313 313 313 314 314 314 314 314 314
320 319 318 317 317 316 315 314 312 311 310 313 312 308 308 310 309 309 309 310 309 308 312 311 308 310 311 312 314 314 314 315 315 314 313 312 313 315 314 314 317 317 315 317 316 312 314 318 319 318 317 315 314 313 313 313 314 316 316 316 317 316 316 315 313 310 308 312 316 315 315 315 316 316 316 316 315 314 314 314 315 316 316 316 316 316 316 315
321 320 319 318 318 317 316 316 315 312 310 312 311 307 308 308 307 308 308 310 310 307 310 311 309 311 311 311 313 313 314 315 315 315 314 312 313 315 314 314 316 316 314 314 316 316 317 318 317 315 312 311 311 311 313 315 315 316 316 317 316 316 316 313 311 311 309 312 315 314 314 316 316 316 316 316 316 316 316 316 316 317 316 317 316 317 316 316
321 321 320 320 318 317 317 317 317 314 310 310 311 309 310 310 309 309 308 309 311 309 310 311 311 312 312 311 313 314 314 314 315 316 314 313 313 314 314 315 316 315 314 315 317 318 316 316 313 310 310 311 311 310 313 315 315 317 317 316 315 317 315 311 312 311 310 311 313 313 315 316 317 317 317 317 316 316 316 315 315 315 316 316 316 317 316 315
321 321 320 320 319 318 318 318 317 316 312 310 310 310 313 313 312 311 309 309 309 309 309 309 310 311 311 311 313 314 314 313 313 315 314 313 313 313 314 315 314 315 315 315 316 316 316 312 308 307 311 314 312 311 314 315 315 317 318 316 316 317 316 313 313 312 312 312 311 314 315 315 318 318 317 317 315 314 314 314 314 315 315 315 315 315 315 314
321 321 321 320 319 318 318 318 317 316 313 311 310 310 313 315 312 310 308 308 309 309 308 308 310 312 310 311 313 313 313 313 312 313 313 313 313 313 313 312 313 316 315 314 315 316 315 309 307 310 311 313 314 313 316 316 315 316 317 317 316 315 315 314 314 314 315 314 313 314 313 313 317 318 317 317 316 315 316 316 316 316 317 316 315 315 315 315
320 321 321 320 319 318 317 318 316 314 314 312 310 310 311 314 313 310 308 308 309 310 309 308 311 311 310 312 314 312 310 311 310 311 312 312 312 312 313 311 311 314 314 313 314 316 313 307 309 313 312 314 315 314 316 317 315 315 316 316 314 314 316 315 316 316 315 315 314 313 313 314 315 316 318 318 316 316 317 317 316 316 316 316 316 316 316 315
318 320 320 320 319 318 318 319 316 314 314 312 310 309 310 313 313 310 309 309 310 313 311 308 308 309 309 312 312 308 308 310 310 311 311 312 311 310 313 313 311 312 311 312 315 314 312 310 311 314 314 315 316 315 316 315 314 316 317 314 312 313 316 316 316 317 316 317 315 314 317 317 316 316 318 317 316 317 317 317 318 318 318 317 316 315 315 315
315 318 320 319 319 319 319 318 316 315 314 313 311 309 309 312 312 309 309 310 311 312 312 308 307 308 310 310 309 308 308 310 312 313 310 310 311 311 313 314 313 313 310 312 316 313 312 315 314 314 315 315 316 317 315 314 314 317 313 311 311 314 316 316 317 317 316 317 318 317 317 316 316 317 318 315 315 316 317 317 318 318 318 316 315 314 314 313
314 316 318 319 318 318 318 318 318 316 316 316 312 309 311 312 310 309 309 311 313 311 310 309 308 309 310 309 309 308 308 310 313 312 309 310 311 311 312 312 312 313 310 311 316 313 311 312 311 313 315 315 316 313 311 314 315 314 310 312 313 315 315 316 317 318 317 316 319 319 317 314 313 315 316 315 315 315 316 317 317 317 316 316 315 316 314 311
313 315 317 318 317 317 317 318 318 318 318 317 312 309 312 311 308 309 310 312 313 311 308 309 309 310 311 310 309 309 310 311 311 311 311 311 311 309 309 309 311 313 313 312 314 313 309 307 310 314 314 313 311 308 309 315 315 311 314 317 317 316 316 317 317 317 317 316 318 318 317 315 312 314 316 315 316 317 317 317 317 318 317 319 319 316 314 311
311 314 316 317 316 316 317 317 318 318 317 316 313 312 313 310 308 310 312 310 310 311 309 309 310 311 311 311 311 310 311 312 311 313 313 312 312 310 310 311 312 314 315 314 314 313 311 310 312 313 310 310 312 310 309 310 310 313 318 320 317 316 316 317 317 318 316 315 316 314 314 316 314 314 316 315 315 315 316 316 317 318 319 322 321 315 312 312
309 312 315 315 316 316 317 317 317 317 317 314 313 315 313 309 310 311 310 309 309 312 312 311 311 311 311 312 313 311 312 313 312 313 314 314 314 313 313 314 314 314 314 315 316 315 315 315 313 311 309 310 315 315 312 311 312 315 319 317 315 313 314 315 317 318 316 315 313 310 312 316 315 315 316 316 316 315 315 315 316 317 318 320 319 315 312 312
307 309 312 314 315 315 316 316 316 316 316 313 313 316 315 313 314 312 309 310 312 313 312 312 311 311 311 312 312 312 312 313 312 313 313 315 316 315 315 315 315 315 314 314 316 314 315 316 314 313 311 310 314 316 315 315 315 316 318 317 313 313 315 316 315 313 313 314 310 308 313 317 316 315 316 316 316 316 315 315 316 316 316 317 317 315 313 312
305 306 308 310 313 314 315 315 316 316 315 314 316 317 316 317 318 316 313 312 313 311 311 312 312 311 312 312 313 311 311 312 312 313 314 314 316 316 316 314 313 314 314 312 315 314 314 315 313 315 315 312 313 315 316 317 316 317 319 317 314 314 314 314 313 311 312 314 311 309 314 319 316 314 315 315 313 313 312 312 315 314 314 315 314 313 312 311
305 305 306 307 309 312 314 315 315 316 314 314 316 314 315 318 319 319 316 312 313 313 311 312 312 313 313 313 312 311 311 312 312 313 314 315 316 316 316 314 312 313 314 312 313 314 315 314 313 314 314 313 314 315 315 317 317 317 317 316 316 315 312 311 311 311 312 313 313 312 314 317 316 315 315 314 314 315 314 311 311 312 312 312 313 313 311 311
304 304 305 305 306 309 313 314 314 314 314 315 315 313 315 318 318 320 318 312 312 314 312 312 313 314 314 313 313 312 311 313 313 313 315 315 315 316 316 315 313 312 312 311 313 314 313 313 314 312 312 311 313 314 314 314 315 315 315 317 315 314 314 313 311 309 310 313 315 314 314 314 313 314 314 314 314 316 317 314 312 314 313 312 314 314 313 315
303 304 305 306 306 307 310 314 314 313 314 315 314 313 315 315 316 320 318 313 311 313 313 314 314 314 314 314 315 314 313 314 313 314 315 314 314 314 314 314 314 312 312 311 314 315 313 313 313 312 313 311 309 312 313 313 315 315 316 317 314 313 314 313 313 313 313 315 315 314 314 312 311 313 314 316 315 315 315 315 315 316 316 316 316 314 316 321
303 304 305 305 305 306 309 313 314 313 314 315 315 315 315 314 314 316 316 315 315 315 314 314 314 315 315 314 315 314 312 313 314 314 315 313 314 315 313 314 313 312 313 311 312 313 312 313 314 310 312 311 308 312 314 313 313 313 314 315 314 315 316 314 314 315 316 316 317 316 314 312 312 313 314 315 317 316 316 316 316 315 315 316 317 315 317 317
303 304 306 305 304 305 308 313 313 313 314 315 316 317 315 313 313 313 314 315 316 317 318 317 314 314 316 315 315 314 313 313 314 314 314 314 314 314 313 314 314 313 312 311 311 312 311 312 315 310 309 312 312 313 316 315 313 311 312 313 313 315 316 315 314 314 314 316 316 316 314 312 314 315 314 314 316 315 316 318 318 316 315 316 316 317 318 316
303 306 307 305 304 305 309 313 313 313 314 315 315 316 314 313 313 312 313 314 314 316 318 318 315 316 318 316 314 314 314 315 315 314 314 313 313 314 313 313 315 314 312 311 311 313 312 311 313 312 310 312 315 315 316 316 315 313 314 315 314 314 314 314 314 313 313 314 314 314 313 311 313 316 315 313 314 315 315 317 319 319 317 316 316 318 321 322
304 305 306 306 306 307 311 313 313 313 314 314 314 315 314 313 312 312 314 315 315 314 314 315 316 316 317 317 316 315 315 315 314 314 314 313 313 315 313 312 314 313 311 312 312 312 313 311 312 315 313 314 316 315 314 316 316 315 315 315 316 315 314 315 316 315 312 312 313 314 314 312 313 317 316 314 315 315 315 316 319 322 320 318 320 321 321 324
303 302 305 308 307 309 312 314 313 314 314 314 314 314 314 313 312 312 313 314 315 315 313 314 316 315 315 315 316 316 316 317 316 314 315 315 313 314 315 312 312 312 312 313 314 314 315 313 313 316 316 315 314 310 308 312 316 316 314 315 316 316 316 316 318 316 313 313 313 313 315 314 315 319 316 315 316 313 312 314 317 320 317 316 324 325 317 316
302 300 303 306 307 310 313 313 313 313 313 313 312 313 313 313 313 312 312 313 314 314 315 315 315 314 314 314 314 315 316 318 318 316 316 317 313 312 315 312 311 312 313 314 314 314 314 314 313 315 315 314 313 310 307 308 313 315 314 315 315 316 317 316 316 315 315 315 314 315 317 316 316 320 318 317 318 314 313 313 313 318 319 315 320 325 317 313
302 302 302 303 306 310 313 311 311 313 312 312 312 312 313 313 313 312 312 313 313 313 314 314 314 314 314 314 313 314 315 316 317 317 316 317 314 313 315 313 311 312 312 314 315 313 314 316 316 315 315 315 314 314 313 311 312 314 315 316 315 315 317 316 314 313 315 317 317 317 318 317 316 321 318 317 321 320 318 314 310 316 321 316 316 320 319 317
301 302 302 302 303 307 310 309 309 311 311 311 311 312 312 312 313 312 312 312 312 313 313 314 315 314 315 315 315 317 317 316 318 318 316 316 315 314 314 313 312 312 313 316 317 314 316 319 316 315 316 317 317 317 317 316 314 313 316 317 316 316 316 315 315 314 316 318 318 318 317 316 317 319 316 315 318 319 317 315 311 312 315 314 314 317 320 319
301 301 302 303 303 304 306 305 306 309 311 311 311 311 312 312 313 312 312 312 312 312 313 315 316 315 315 316 316 316 317 317 318 319 318 317 316 315 314 311 311 312 313 316 317 317 321 321 316 316 317 316 316 317 319 319 317 315 317 318 317 316 317 316 316 317 317 317 317 318 317 317 317 316 316 317 317 318 317 316 316 315 314 313 312 313 316 315
301 301 302 303 303 303 303 303 305 308 309 310 310 310 310 311 312 312 312 312 312 312 313 314 315 315 315 316 316 316 316 317 318 317 317 317 316 315 314 312 312 312 313 314 315 317 321 319 316 317 317 316 315 315 318 319 318 317 318 318 317 317 317 317 317 317 318 318 318 318 318 318 317 315 316 317 316 317 317 316 317 316 315 314 312 311 311 311
301 302 302 302 303 303 303 303 304 306 308 309 310 310 310 310 311 312 312 312 312 312 313 314 314 314 314 315 316 316 316 317 317 317 316 316 317 316 314 315 316 314 313 313 313 317 319 317 316 318 317 316 315 315 316 316 316 316 317 317 318 317 317 317 317 317 318 318 318 318 319 319 317 315 316 316 316 315 315 316 316 315 314 315 313 312 312 313
300 301 301 302 303 304 304 304 304 304 306 309 310 310 310 310 310 310 311 312 312 312 312 313 314 313 314 314 315 316 316 317 317 317 316 316 316 315 315 316 317 315 313 313 314 317 318 316 316 317 317 316 316 316 316 316 315 315 316 316 317 317 316 316 316 317 317 318 318 318 319 318 317 316 316 316 316 316 315 315 316 315 317 317 315 315 315 315
300 300 301 301 301 302 303 303 304 304 305 307 308 309 309 310 310 310 311 312 312 312 312 312 313 313 313 314 315 315 315 315 316 316 316 316 316 315 315 316 316 314 313 313 314 315 316 317 318 317 317 318 317 316 317 317 316 315 314 315 315 316 317 316 317 317 317 318 318 318 319 318 317 316 316 316 317 317 315 314 314 315 318 319 319 317 316 315
299 299 301 301 301 301 302 303 304 304 304 305 306 307 307 308 309 309 310 311 311 312 312 312 312 312 313 313 314 314 314 314 315 315 315 316 315 315 315 315 317 316 313 313 314 314 314 317 318 317 317 319 318 318 318 317 316 315 315 315 315 316 316 316 316 316 316 317 318 318 319 318 316 316 316 316 317 316 314 314 314 315 317 317 318 318 317 317
299 299 300 301 301 301 302 302 303 303 304 304 305 306 306 307 307 308 309 310 310 311 311 312 312 312 312 313 313 313 313 313 313 313 313 314 314 314 315 316 316 316 315 314 315 315 315 316 315 316 318 319 319 319 318 318 318 318 317 316 315 315 316 315 315 315 315 316 317 318 318 316 316 316 316 316 316 315 314 314 315 315 316 316 316 317 318 318
Wind_Speed
4 4 3 2 2 2 2 2 2 2 3 4 4 5 5 5 5 5 5 5 5 5 4 3 1 1 1 2 2 2 2 3 5 6 4 3 5 5 5 5 4 3 3 2 3 5 3 2 3 4 4 3 2 1 1 2 2 2 2 3 3 3 3 5 7 5 0 2 7 7 7 7 5 5 3 2 4 2 2 4 3 2 4 2 1 1 4 12
4 4 3 3 2 2 2 2 1 2 3 3 4 4 5 5 5 5 5 5 5 5 4 3 1 1 1 1 2 2 3 4 6 6 4 4 4 4 5 4 4 3 3 2 4 4 3 3 3 3 2 1 1 1 1 2 2 1 1 3 4 3 2 2 5 5 1 1 6 7 4 5 4 5 5 5 5 4 5 6 4 6 6 5 3 2 7 14
5 4 3 3 2 2 2 1 1 1 3 4 4 4 4 5 5 5 5 5 5 5 4 3 1 1 1 2 2 1 4 5 4 3 2 3 4 4 5 4 4 4 3 3 4 4 4 5 5 3 2 2 2 1 1 2 2 0 1 5 2 2 1 0 3 4 1 2 4 7 3 3 2 4 4 5 4 4 8 7 5 8 9 8 6 5 10 15
5 5 3 3 2 2 2 1 1 1 3 4 4 4 5 5 6 6 6 6 6 5 4 3 2 2 2 2 1 2 3 3 2 2 2 3 5 5 5 4 4 3 3 3 4 5 6 7 5 2 2 2 2 1 1 2 1 2 1 3 2 1 1 2 2 1 1 2 2 5 4 4 3 2 4 5 5 6 9 9 8 9 7 8 9 9 12 15
5 5 4 3 2 2 2 1 2 1 2 4 4 5 5 6 7 7 7 7 7 6 5 4 3 3 2 2 2 2 1 3 2 2 3 4 6 6 5 5 4 3 3 3 5 6 6 5 3 2 2 2 2 1 1 3 1 2 0 2 3 1 1 2 0 1 0 1 2 5 4 4 4 3 5 6 8 5 2 4 6 6 1 7 10 11 12 15
6 5 4 4 3 2 1 1 1 1 2 3 4 5 6 6 7 7 8 8 7 7 6 5 4 4 3 2 2 1 1 1 2 2 4 5 7 6 5 4 3 3 2 4 5 5 4 3 2 2 2 2 1 1 2 2 2 1 1 1 1 1 2 2 0 1 1 2 4 4 2 3 4 5 2 7 12 2 5 3 1 0 2 5 10 13 13 15
6 5 5 4 3 2 2 1 1 1 1 2 3 5 6 7 7 8 8 8 7 7 7 6 5 4 4 3 3 2 0 1 1 4 6 6 7 6 5 4 3 3 3 4 4 3 3 2 3 2 2 3 1 2 2 1 1 1 2 3 2 1 2 1 1 2 2 3 2 1 1 3 5 5 2 6 14 4 4 2 2 2 2 4 9 13 13 15
7 6 5 4 3 2 2 2 1 1 1 1 2 4 5 6 7 8 8 8 8 7 7 6 6 4 4 4 2 2 1 1 3 5 7 6 6 5 5 3 3 3 3 5 4 4 3 3 4 3 1 3 1 3 1 1 1 0 3 4 2 1 1 2 1 2 1 2 0 1 4 3 2 1 2 10 12 4 3 2 1 2 4 6 9 12 12 14
7 6 5 4 3 3 3 2 1 2 1 1 1 3 4 5 6 7 8 8 8 7 7 6 6 4 5 4 2 2 1 1 4 7 7 7 6 5 4 3 3 4 4 5 4 5 4 2 3 4 3 4 2 3 0 2 1 1 3 4 3 3 2 2 2 2 1 1 1 4 4 1 1 2 7 12 6 2 1 2 2 4 6 8 9 11 12 13
7 7 6 4 3 2 3 2 1 1 1 1 1 2 2 3 5 5 7 8 8 8 7 7 6 5 5 4 1 2 1 2 6 7 7 7 6 5 4 3 3 3 4 6 3 2 2 4 5 3 4 5 2 2 2 1 1 3 4 4 4 3 2 1 2 3 0 1 0 5 2 0 1 2 7 4 3 3 2 4 3 4 8 8 7 9 11 12
3 4 5 4 3 1 2 2 1 1 1 1 2 1 1 3 4 5 6 7 8 8 7 7 7 5 4 3 2 2 2 4 7 7 8 7 5 5 5 4 4 5 5 6 4 3 4 9 9 4 2 4 4 3 2 1 2 2 2 4 5 3 3 1 2 3 1 2 0 3 2 1 3 5 8 2 4 2 2 4 4 6 7 7 7 7 8 10
2 3 2 3 3 2 1 1 0 1 1 1 2 1 1 3 4 5 6 7 8 8 7 8 7 6 5 2 1 3 4 6 8 7 7 7 6 7 6 5 4 4 4 5 4 5 10 13 9 4 2 4 5 3 3 2 0 1 1 2 4 2 2 2 1 1 2 1 1 1 4 5 7 11 7 4 2 2 2 5 5 7 7 5 6 6 6 9
3 3 3 3 3 2 1 1 1 2 1 2 2 1 2 4 6 6 7 7 7 7 7 7 7 6 4 1 2 4 5 6 8 8 8 8 8 8 8 7 6 6 6 8 7 7 10 8 5 6 3 2 3 2 4 3 1 2 0 1 2 3 3 2 2 1 2 1 0 2 5 5 9 12 4 5 2 2 4 8 6 7 6 5 5 5 7 9
3 2 3 3 3 2 1 1 1 2 2 2 2 3 4 6 7 6 7 7 7 7 7 6 6 6 2 1 3 4 5 6 9 10 10 10 10 11 10 9 9 9 10 11 11 9 9 8 9 9 3 3 4 3 4 3 1 1 1 1 1 3 2 4 2 1 3 2 0 4 6 5 5 6 4 4 1 1 7 9 7 7 5 5 5 6 8 9
4 3 3 2 3 3 3 3 3 3 2 2 3 5 6 7 7 7 8 7 7 6 6 5 5 4 2 1 2 4 5 6 8 10 10 11 11 9 9 10 12 12 13 14 13 11 9 9 8 5 3 2 3 5 3 2 1 2 2 3 1 3 2 3 2 1 1 1 2 5 5 6 7 3 5 3 1 2 7 9 7 7 6 6 6 7 8 8
4 4 3 2 1 1 2 3 3 3 2 3 4 6 7 8 8 8 9 8 7 7 5 4 4 3 2 2 3 3 4 4 7 9 10 11 8 9 11 12 12 11 11 11 11 10 8 7 4 1 2 1 3 4 3 2 2 0 2 2 2 3 1 1 2 2 2 0 3 6 4 4 4 1 4 2 2 2 5 8 8 8 7 7 6 6 7 7
3 3 3 3 2 1 1 1 2 2 2 3 5 7 8 8 9 9 10 9 8 6 4 3 3 2 1 2 3 2 2 3 6 8 9 9 9 13 13 9 7 7 8 8 6 5 6 5 1 1 2 1 1 3 3 4 4 3 1 2 1 2 2 1 2 2 2 2 4 5 6 9 9 5 3 4 4 2 7 10 10 8 7 7 6 7 8 8
4 2 2 2 1 1 1 1 1 1 1 3 6 8 9 10 10 10 10 10 8 6 3 2 2 2 2 3 2 2 3 4 6 6 7 9 11 13 9 6 5 5 5 4 3 3 3 2 1 1 3 2 3 5 5 3 4 4 4 3 1 2 3 3 1 1 1 2 5 6 8 13 14 12 12 7 6 5 10 11 11 10 9 9 7 8 9 8
5 4 2 2 2 3 2 1 1 1 2 5 9 11 11 10 8 7 6 4 4 2 1 2 3 2 2 2 2 3 6 6 7 6 6 9 10 9 8 7 5 3 3 2 1 3 1 1 1 3 4 6 7 8 5 1 1 4 3 2 2 3 3 2 1 2 1 3 6 9 10 13 14 14 15 11 5 6 11 11 10 9 10 9 9 9 9 10
7 6 4 2 2 5 7 4 2 1 3 7 11 11 8 6 4 3 1 2 1 1 1 2 2 2 2 2 4 7 8 6 4 3 6 9 9 8 7 4 3 3 1 2 2 2 2 2 5 6 5 7 7 4 3 4 4 4 3 1 2 3 3 2 1 2 1 4 6 7 10 13 14 14 15 13 8 9 12 13 12 11 10 10 10 11 11 12
9 7 6 4 2 3 7 7 5 1 2 6 9 5 2 2 2 2 2 2 1 1 2 2 2 2 3 3 6 7 4 3 2 2 7 7 6 6 2 1 4 4 0 0 2 1 2 5 7 4 1 3 4 5 6 5 3 2 2 2 2 4 4 1 2 1 1 3 4 2 9 14 13 14 14 12 12 13 14 14 15 14 13 11 11 13 12 10
10 9 7 6 4 2 3 6 6 3 2 5 5 2 1 1 3 3 2 2 2 1 1 2 1 1 2 3 6 5 1 3 3 2 5 4 2 3 2 2 5 4 2 2 3 2 3 6 3 3 6 7 6 4 4 3 2 2 2 2 3 3 2 1 2 2 1 3 3 4 9 15 14 15 16 14 15 15 14 14 15 14 14 13 13 12 11 10
12 10 9 8 6 4 1 3 5 4 1 4 4 2 0 2 4 3 1 1 2 1 1 2 2 3 3 1 6 6 2 3 4 4 6 5 2 1 4 5 4 4 4 6 6 5 4 4 1 4 6 7 5 3 4 3 2 3 2 3 3 1 1 2 1 2 1 1 3 5 7 13 15 14 14 13 12 13 14 13 14 13 14 16 14 10 9 12
10 11 10 9 8 6 2 2 5 4 2 4 5 4 2 3 4 2 1 1 1 1 1 2 2 3 4 2 8 8 2 1 3 4 8 8 4 2 3 4 3 5 6 7 7 6 3 2 2 4 3 5 5 5 6 5 4 4 5 6 5 2 2 2 2 0 2 1 1 5 7 9 8 8 9 5 4 9 10 9 12 12 13 14 12 11 12 14
7 9 10 10 9 8 4 2 4 3 3 3 5 6 3 4 3 1 1 1 1 1 0 2 2 4 5 5 8 7 1 1 1 1 7 7 4 4 2 1 2 6 6 5 4 5 2 3 5 7 3 2 5 5 6 6 4 3 5 9 8 3 2 1 2 1 3 1 1 3 5 5 3 8 11 5 4 10 6 6 13 13 10 9 10 11 11 11
6 8 10 11 11 9 4 2 2 2 1 1 3 7 6 4 2 1 1 1 2 2 2 3 3 5 8 6 6 5 2 3 1 4 6 4 2 3 3 2 1 2 5 5 2 3 1 2 3 7 6 4 4 4 5 6 5 3 2 5 6 2 2 3 1 1 3 1 1 1 4 6 7 13 12 4 8 13 7 8 14 13 10 8 8 10 9 9
5 7 10 12 13 11 5 2 2 1 1 2 3 8 9 6 2 1 1 1 4 3 4 1 1 5 8 4 4 5 3 3 4 4 3 2 2 1 2 5 2 1 4 4 2 1 4 4 3 5 7 6 4 4 5 8 6 1 1 0 3 4 4 3 3 3 2 2 1 1 2 5 8 11 6 1 7 11 9 11 13 11 9 8 8 8 9 8
3 6 11 12 13 13 6 1 3 2 1 5 4 9 11 7 3 1 2 3 2 3 4 1 1 4 4 2 1 2 1 1 4 2 2 3 2 1 1 6 5 4 4 4 5 1 3 5 7 7 6 5 5 0 4 10 5 1 1 1 2 3 2 3 2 2 0 3 3 4 3 4 8 8 2 2 5 10 10 13 13 9 6 5 6 7 6 6
3 5 11 13 13 15 10 4 3 2 3 7 5 8 10 6 4 0 1 3 1 2 2 2 4 3 3 3 2 3 2 2 1 1 1 2 3 2 1 3 4 6 3 2 3 1 2 2 4 5 5 4 3 4 1 7 3 2 4 5 6 5 5 3 0 1 1 4 4 6 8 6 7 7 5 1 3 9 10 9 9 5 3 3 4 4 3 2
3 4 9 14 16 16 13 9 8 6 4 6 4 5 7 4 3 3 3 3 1 2 2 2 2 3 8 9 2 1 1 2 1 2 1 1 3 4 1 2 3 5 3 2 1 2 1 0 1 2 2 2 5 5 3 1 4 7 6 5 6 4 3 2 1 1 2 5 1 5 7 5 6 4 6 3 2 5 6 5 5 3 2 3 2 1 1 1
4 4 6 14 18 17 11 8 11 10 4 4 2 4 4 0 1 5 5 1 0 2 3 2 1 5 12 11 4 2 2 2 2 5 5 3 3 3 3 3 3 3 2 2 2 1 1 2 1 1 1 3 5 6 5 3 3 4 3 3 3 1 1 1 1 1 4 4 1 2 1 4 7 4 2 1 3 4 5 5 5 4 3 1 1 1 1 0
3 3 5 10 14 16 11 4 8 12 6 1 4 2 2 2 1 5 4 2 1 3 4 2 1 6 10 7 3 5 4 2 3 5 4 4 5 6 6 6 6 4 4 6 4 1 1 3 2 2 0 2 5 6 5 2 1 2 3 5 4 2 2 3 2 2 5 3 1 3 2 4 10 7 6 10 12 10 9 8 8 7 6 3 2 2 2 1
1 3 5 6 6 11 12 5 6 10 7 7 6 3 0 4 5 7 6 3 1 0 2 3 2 4 9 6 4 5 2 2 5 3 1 3 5 7 5 3 4 2 2 5 4 3 3 1 3 4 2 4 7 6 5 4 4 6 7 7 6 4 3 5 2 1 4 1 2 2 1 4 9 7 8 15 15 8 7 11 11 9 10 8 4 3 3 5
1 1 4 5 4 6 8 8 7 8 9 9 6 3 2 7 8 9 10 4 1 2 2 3 5 4 6 4 2 5 2 2 6 4 3 4 4 7 6 5 4 1 2 3 4 5 6 4 6 9 4 7 11 8 5 7 7 6 3 3 5 5 4 5 3 2 3 1 2 1 2 5 5 2 2 7 8 5 5 8 7 8 10 9 7 6 6 8
2 1 1 3 6 5 5 8 9 9 11 9 5 2 6 8 6 7 7 3 2 2 3 2 5 5 4 1 2 2 2 1 4 3 4 6 5 7 7 8 9 5 3 4 3 4 5 5 4 3 2 10 12 4 3 6 5 3 1 0 4 4 2 1 1 0 1 1 1 3 4 6 5 5 7 9 9 7 5 4 4 8 9 7 9 8 7 8
2 2 2 2 5 7 7 8 11 14 13 9 4 3 6 5 2 2 3 2 2 5 6 2 2 4 4 1 1 3 1 1 4 4 3 4 4 5 6 6 11 11 9 7 2 3 3 3 2 2 1 6 5 1 3 2 3 4 3 5 3 1 2 2 0 2 1 5 4 3 6 8 6 9 10 11 14 12 7 5 6 8 7 7 9 7 5 7
3 2 1 3 5 8 10 10 14 16 11 6 4 6 5 4 3 2 0 2 2 4 7 5 3 4 5 4 3 5 3 2 4 5 4 3 3 6 7 5 7 14 15 9 2 2 3 2 1 1 2 1 2 1 2 3 1 4 4 5 3 2 1 2 3 1 2 6 4 4 10 10 6 6 2 3 9 12 11 10 11 9 6 8 8 5 5 7
2 2 1 6 8 9 11 13 17 14 6 3 5 6 6 5 5 4 2 2 2 2 3 5 3 3 5 6 4 6 6 4 6 6 4 4 4 7 10 6 6 14 16 7 1 1 3 3 0 1 1 1 2 2 3 1 1 1 1 2 2 2 3 3 4 4 4 6 3 5 8 7 8 8 3 3 6 7 9 9 10 11 10 9 7 5 7 7
1 0 2 6 11 12 14 18 17 9 3 5 7 6 6 6 5 6 6 3 3 3 1 3 1 1 2 4 3 5 7 6 7 7 5 5 4 5 10 9 6 11 14 9 4 1 3 5 3 1 1 1 2 5 7 5 2 2 0 2 0 2 3 3 3 3 5 6 4 4 5 5 8 7 6 11 10 8 10 8 7 10 10 8 6 4 6 7
1 1 1 4 12 18 20 18 11 5 4 6 6 4 4 3 4 7 8 5 2 2 4 4 3 1 1 1 1 2 5 4 6 6 4 6 6 4 8 9 4 3 8 11 6 1 3 4 4 1 1 2 5 7 9 10 8 5 5 6 4 2 0 2 3 1 3 5 5 5 6 7 6 4 6 11 9 8 10 7 5 6 6 4 5 5 4 4
1 2 1 1 11 22 22 13 7 5 5 5 6 5 3 2 5 7 5 4 2 1 2 5 6 6 4 2 1 1 2 1 3 4 4 6 8 5 5 8 7 7 6 8 7 5 4 4 4 4 3 6 5 2 3 6 8 8 8 10 11 8 5 4 6 3 1 3 3 3 6 10 6 2 5 8 6 5 5 5 6 5 3 4 4 4 4 4
1 2 1 1 14 26 19 7 6 5 5 7 5 4 3 2 5 7 4 3 3 1 1 2 5 7 7 8 6 3 3 2 2 3 3 5 10 8 2 2 7 10 8 5 5 5 3 2 4 4 4 4 1 3 2 3 3 3 4 7 8 8 9 8 6 3 2 2 0 1 4 10 8 2 2 3 1 3 3 3 6 5 3 4 3 3 4 5
3 3 0 2 15 26 15 5 8 7 7 8 4 2 4 3 4 6 7 7 4 3 3 3 3 5 6 8 9 7 5 4 4 5 5 5 8 7 1 3 6 8 6 2 2 3 3 1 4 4 1 1 2 1 1 2 1 4 7 5 4 5 5 4 1 1 3 4 3 3 4 10 9 2 2 3 1 2 4 4 6 6 4 4 4 3 3 5
3 3 1 1 11 20 11 5 9 9 9 8 6 6 6 4 4 7 8 9 6 4 5 4 3 5 4 4 6 8 9 6 6 9 8 6 5 2 2 6 8 7 5 2 2 5 4 3 5 5 4 3 2 3 3 2 4 6 6 4 6 7 3 2 2 1 4 6 9 8 6 9 8 2 4 2 3 5 7 5 6 6 5 4 4 4 4 5
3 2 2 1 3 8 6 2 4 8 11 10 9 11 10 5 5 8 10 9 6 4 5 5 5 5 5 4 3 4 8 7 6 7 7 6 3 2 1 4 7 8 6 1 3 4 4 4 5 7 7 7 7 6 5 5 5 3 4 6 10 13 11 6 4 5 6 8 10 9 8 10 12 5 4 4 5 6 8 6 5 6 7 6 5 5 5 4
4 2 2 1 0 2 2 0 1 4 9 11 8 9 13 10 5 5 8 9 7 6 5 3 4 5 6 7 5 4 6 7 5 4 5 5 2 1 0 2 5 8 3 3 4 4 1 2 5 9 11 10 11 9 3 6 7 7 10 12 12 14 15 10 6 7 10 10 10 11 11 15 20 16 11 9 7 7 8 7 6 6 8 8 6 6 5 4
4 3 3 3 1 3 3 2 4 5 6 10 8 6 12 15 8 4 7 8 8 9 6 2 5 7 8 10 9 8 8 8 6 6 9 8 3 1 1 1 4 6 2 2 2 4 3 3 7 10 14 13 15 15 5 8 10 13 14 15 13 13 14 13 11 13 12 10 11 13 16 19 20 19 20 17 10 7 7 8 7 6 6 6 6 6 6 6
4 3 3 2 1 4 6 6 8 8 7 8 7 6 10 14 13 9 7 7 7 9 7 5 8 12 12 11 10 9 9 9 8 9 11 9 7 4 2 1 3 4 3 2 1 3 3 6 9 10 13 14 17 18 9 7 9 10 12 14 14 14 15 16 17 18 16 13 13 16 20 20 17 18 23 20 11 8 10 9 5 3 4 5 6 7 8 9
4 1 2 1 1 2 4 4 8 10 10 7 6 7 10 13 15 12 7 6 7 9 10 10 12 14 14 13 11 9 10 9 9 10 9 8 8 7 4 5 3 2 4 4 2 3 4 5 10 11 12 15 18 19 13 8 8 8 8 9 10 12 17 19 19 21 23 20 16 17 21 21 17 19 22 17 9 7 7 4 3 3 5 7 8 8 8 9
4 3 2 1 1 1 1 2 7 8 9 8 6 6 7 11 14 10 7 9 9 9 12 15 15 13 13 14 13 12 12 10 10 11 9 9 9 7 5 7 4 0 1 3 1 1 4 5 6 6 8 14 18 19 18 12 7 8 8 7 8 11 15 19 18 18 20 19 17 18 20 20 17 15 14 12 6 2 4 6 6 8 8 8 8 8 8 9
5 3 3 2 4 5 2 2 5 5 7 9 9 8 9 11 12 7 5 8 10 9 11 16 17 12 11 14 16 16 15 13 13 13 11 10 10 8 6 6 7 5 2 3 1 1 4 3 0 2 5 11 15 18 17 10 4 6 10 11 13 14 13 13 13 12 14 16 17 17 16 16 15 9 8 12 8 5 9 10 9 9 9 9 9 9 9 10
7 2 2 2 4 7 5 3 4 6 7 8 9 8 7 8 8 7 5 4 8 10 9 11 13 9 10 15 16 14 12 10 11 10 7 6 7 7 6 5 8 7 5 4 3 4 6 4 3 4 6 10 15 15 11 7 4 7 14 19 21 19 14 10 10 13 18 17 15 14 13 14 16 12 11 14 11 8 11 11 9 10 10 10 11 11 12 13
Wind_Direction
171 162 153 141 141 141 128 120 134 172 189 188 183 188 194 189 183 181 178 175 173 175 179 171 163 109 68 75 94 94 98 118 127 120 124 126 109 109 113 112 105 84 83 98 138 161 139 72 79 111 111 78 16 347 101 32 19 235 201 208 218 189 189 183 183 179 70 155 161 163 188 202 175 162 174 170 203 204 176 206 207 207 229 242 296 296 160 161
175 166 159 137 134 140 141 139 131 170 194 198 197 196 195 185 177 181 177 175 176 175 175 164 157 122 70 92 102 92 112 129 126 101 99 141 128 117 117 113 100 82 89 120 144 166 162 118 104 113 106 89 10 344 182 359 337 223 143 222 223 175 158 188 180 161 8 309 152 155 186 215 191 154 167 204 190 176 220 211 199 223 216 198 211 210 166 169
183 171 164 150 138 149 161 167 158 184 197 199 203 196 189 180 173 176 174 174 175 174 173 162 150 134 124 118 106 106 130 137 127 97 97 136 136 133 127 116 103 94 106 129 133 134 131 130 136 133 95 85 39 356 159 9 319 117 197 232 213 144 125 142 186 150 35 326 156 153 153 215 187 136 170 214 199 188 227 222 198 224 220 191 170 165 167 176
194 183 173 168 153 163 167 179 195 212 211 200 200 198 188 179 178 176 170 170 172 173 170 162 151 143 140 122 120 114 130 160 151 120 130 132 141 142 133 124 117 106 111 132 125 114 115 115 116 105 101 115 59 331 122 24 313 141 229 257 63 128 165 121 203 124 42 326 171 141 142 198 155 145 199 199 207 219 232 228 224 238 220 173 160 162 170 180
204 190 179 173 162 171 177 189 193 224 229 208 202 197 191 187 182 176 169 169 170 169 166 164 155 152 146 132 149 122 153 188 144 126 145 145 149 143 135 130 127 119 122 135 121 116 117 106 101 87 81 123 111 173 107 27 338 141 190 345 52 257 105 92 266 92 36 328 153 150 166 177 128 186 218 205 225 233 219 212 225 247 195 151 163 163 170 185
211 194 181 171 163 162 166 182 192 223 235 223 212 197 195 192 181 174 172 170 168 168 166 163 157 161 152 132 136 139 237 204 117 150 148 147 148 141 142 137 133 135 142 136 128 126 115 98 122 115 85 103 112 112 92 39 308 211 135 83 106 315 41 86 46 135 207 210 176 173 168 136 161 214 210 219 236 224 75 74 98 56 78 139 157 161 173 187
212 197 186 171 170 167 164 172 169 220 224 232 225 206 200 192 181 174 172 171 169 168 163 163 162 162 155 141 110 88 319 35 112 159 146 146 145 139 140 140 135 135 157 147 133 128 122 130 132 126 108 106 121 99 73 65 264 264 136 134 158 350 14 43 37 153 207 234 196 79 169 171 206 225 74 234 242 217 111 96 60 72 125 154 161 170 184 189
211 201 193 178 178 179 176 175 165 218 214 213 223 219 211 197 187 173 171 172 167 167 163 164 162 157 157 152 123 95 87 70 154 155 142 140 137 137 131 129 130 122 146 147 139 144 145 135 135 172 125 95 148 117 75 159 139 288 129 140 154 101 37 62 105 150 198 262 300 187 195 190 227 272 309 250 245 214 148 161 170 170 164 183 187 188 189 192
214 204 194 186 195 198 186 167 189 220 196 185 198 221 217 201 193 176 171 170 165 165 160 162 159 156 157 135 112 172 126 88 161 151 140 133 120 132 131 124 138 130 121 114 133 162 168 157 153 194 126 100 157 113 354 229 129 62 114 138 137 122 101 121 137 120 191 219 182 210 193 149 24 340 267 251 254 58 152 212 190 189 193 199 199 199 195 197
217 207 202 194 202 201 174 148 206 246 191 171 154 195 213 192 188 174 168 165 164 162 159 162 154 151 154 133 138 186 118 120 158 150 140 129 108 120 127 124 134 140 111 89 98 133 186 172 149 167 117 107 145 100 340 287 92 78 113 119 97 108 113 159 155 97 174 139 192 238 206 104 125 258 252 236 35 16 243 208 187 208 218 211 205 206 205 208
198 195 197 190 193 174 152 159 216 258 224 143 124 156 211 177 170 165 162 160 158 158 157 157 153 147 136 147 197 173 110 132 153 151 142 129 113 120 122 126 127 131 113 86 83 75 111 139 135 142 125 132 140 94 49 60 91 76 145 130 79 81 99 72 143 88 317 141 87 269 246 221 131 230 243 115 50 349 270 228 208 224 230 221 215 212 213 221
109 102 130 152 167 146 114 125 185 289 356 71 95 99 144 155 155 154 153 153 154 154 155 152 154 149 125 127 172 126 129 138 146 149 144 133 125 122 113 121 125 119 119 104 89 94 121 133 130 96 71 162 150 105 109 115 111 104 193 159 100 139 135 64 84 40 303 152 108 273 256 233 196 226 234 90 38 7 320 259 237 235 238 231 224 224 223 224
125 109 105 97 107 123 103 87 32 352 29 78 81 78 118 135 138 145 149 150 153 151 152 151 151 153 147 140 110 129 142 140 143 144 144 138 124 113 104 108 110 102 116 122 115 118 132 134 108 89 75 141 122 114 131 107 284 155 142 309 136 197 186 106 78 324 240 156 52 243 260 238 205 225 208 74 359 312 271 255 242 239 241 240 230 232 234 224
137 140 126 99 94 97 76 65 17 359 16 72 96 113 122 128 131 139 145 146 150 150 152 153 151 156 163 115 122 145 152 148 151 146 147 144 124 108 103 102 104 101 101 107 111 116 125 114 101 105 68 30 103 143 129 89 326 121 152 259 183 222 169 107 89 255 211 163 282 229 252 265 240 229 122 70 355 266 268 260 247 241 240 248 241 240 243 229
161 160 132 105 97 94 72 57 45 27 31 72 102 122 126 132 132 134 140 142 145 147 149 148 148 154 151 123 138 159 157 158 162 160 158 149 130 113 111 112 106 101 96 94 98 101 104 102 96 100 70 24 147 150 121 91 62 54 226 191 146 237 175 97 82 312 256 112 203 220 244 269 274 277 91 64 95 161 264 268 261 255 249 251 250 249 251 242
153 159 147 132 104 91 88 81 65 46 49 82 113 126 128 131 130 132 135 135 140 142 139 142 149 166 174 140 133 154 163 169 172 173 166 158 151 136 128 118 103 97 96 90 90 88 73 73 65 31 90 145 177 152 141 165 158 107 254 204 158 219 229 123 109 35 340 52 212 231 260 269 272 357 102 118 135 150 270 275 270 260 255 254 251 251 252 255
133 138 148 154 160 183 174 123 86 55 62 107 126 126 126 128 128 130 129 130 131 124 117 123 143 167 173 130 144 170 164 168 170 170 168 168 164 146 133 113 97 99 99 90 86 71 38 51 92 248 83 126 167 167 185 208 214 188 219 233 201 225 246 249 140 86 345 275 228 225 246 256 260 271 230 189 172 249 276 275 274 269 263 256 249 252 251 253
133 112 102 117 138 206 249 144 82 45 82 121 129 126 124 123 124 126 127 127 115 98 95 106 152 198 198 162 166 155 129 143 153 153 160 158 154 149 135 112 116 116 107 91 52 23 15 31 254 156 121 155 165 192 202 215 225 189 192 210 208 226 233 272 263 95 347 258 240 231 239 256 261 267 267 241 180 232 268 269 273 272 267 262 253 252 250 249
154 141 104 49 33 9 2 84 96 49 95 130 130 120 116 112 113 119 125 137 129 117 151 159 172 190 172 151 110 107 119 129 141 143 144 143 146 138 109 101 116 106 134 175 58 25 358 105 146 181 187 191 187 204 208 150 124 146 164 200 209 232 229 249 298 41 344 254 247 246 251 261 265 265 271 268 215 227 263 265 264 263 261 259 252 249 247 247
180 164 148 112 38 9 14 34 42 68 111 139 137 124 120 122 122 127 153 236 204 91 63 115 140 92 81 104 118 125 119 110 123 144 147 147 143 124 85 62 101 95 133 198 99 50 297 196 197 214 207 191 188 182 115 92 86 112 127 179 217 246 252 214 89 41 4 264 254 252 264 269 269 268 269 272 265 253 260 260 258 254 250 250 248 249 246 244
199 186 175 165 131 20 15 21 21 37 149 159 156 152 157 168 174 152 166 217 169 63 33 53 74 82 92 124 145 145 127 95 86 137 156 157 157 155 133 22 159 154 107 63 96 92 234 222 221 223 112 120 144 118 109 114 96 118 172 224 229 236 250 147 65 24 82 265 269 303 290 276 268 269 268 268 267 262 257 255 258 256 253 251 248 249 250 249
219 202 191 185 167 123 21 13 12 4 226 190 185 223 294 182 145 119 130 185 156 107 51 76 91 108 95 140 169 166 163 126 125 172 173 161 181 196 162 159 187 174 114 139 144 135 208 230 227 98 91 91 97 130 142 136 138 154 175 230 244 237 244 155 63 26 99 250 289 7 309 285 277 270 264 258 256 260 258 254 260 264 262 257 251 249 250 255
229 220 210 200 183 174 114 359 354 357 268 214 211 230 248 158 144 122 117 161 147 139 139 169 207 172 135 184 187 174 179 162 159 188 188 171 157 201 160 166 179 137 147 187 184 176 199 240 350 99 135 127 104 151 158 140 181 201 197 218 238 190 223 243 81 64 105 245 307 335 304 287 282 271 260 251 247 261 267 265 266 262 259 259 259 261 259 258
220 224 227 214 192 189 188 331 331 337 287 245 231 222 184 169 165 159 152 80 189 169 159 215 238 189 168 162 176 177 185 174 169 173 180 176 149 151 175 152 139 149 182 194 193 204 187 63 90 123 146 144 134 162 175 186 210 216 218 225 238 207 208 259 35 5 224 148 313 305 289 277 276 274 270 249 231 263 266 270 270 254 247 254 261 265 257 252
202 208 222 222 202 192 201 293 309 305 289 271 235 224 215 191 180 174 141 41 229 160 35 214 211 200 174 137 160 167 113 176 240 143 170 177 146 141 153 96 181 190 176 153 183 231 199 102 138 133 106 123 146 173 192 202 218 225 220 227 243 247 168 191 49 326 260 204 49 324 286 270 293 284 272 250 241 260 244 245 264 259 246 243 253 259 252 247
199 194 203 217 205 185 194 254 278 318 314 304 233 218 220 209 175 169 129 29 257 186 134 176 178 180 165 140 151 144 128 200 21 64 143 160 105 124 152 136 327 198 149 134 183 252 152 124 144 142 145 144 161 212 204 198 218 232 219 231 239 223 145 186 171 258 274 290 42 359 290 288 304 287 277 266 263 267 257 247 257 261 256 244 247 255 256 256
192 189 192 208 204 185 181 219 179 61 40 333 277 211 211 212 190 233 182 284 268 174 130 169 230 167 160 154 165 156 184 178 101 82 96 97 98 54 181 170 149 134 141 143 208 227 131 147 154 144 146 151 184 220 188 187 205 216 34 313 189 176 189 187 181 227 280 336 261 184 248 268 278 281 291 9 273 272 267 260 255 250 247 244 249 254 257 260
173 189 189 198 202 194 191 172 143 105 13 350 316 207 201 207 213 277 209 226 269 125 123 149 117 125 129 109 115 117 17 86 124 143 22 41 107 54 204 185 169 147 146 188 211 194 120 173 179 162 158 176 188 176 164 182 196 1 29 61 115 133 142 138 163 207 63 318 258 168 174 249 257 253 247 62 284 274 264 261 261 254 239 233 245 249 251 263
158 183 189 193 196 198 203 203 170 193 306 346 335 199 188 199 218 75 160 211 201 101 102 128 127 105 115 130 84 60 56 25 58 158 57 68 83 53 179 172 133 120 110 246 231 38 51 205 202 178 182 189 140 40 190 192 177 132 142 101 89 83 75 91 127 117 129 272 246 163 178 250 270 231 206 138 267 266 262 259 267 279 273 236 241 245 241 258
162 163 184 190 189 194 202 213 217 220 267 323 342 175 177 199 203 157 172 219 198 96 69 132 157 143 148 153 142 13 66 39 54 113 98 101 68 42 75 106 93 120 107 337 323 51 67 73 299 221 200 144 105 66 18 14 115 145 153 106 93 83 65 72 42 41 266 262 219 150 184 248 289 213 183 179 223 263 269 267 275 315 312 247 227 247 215 126
161 152 169 184 191 195 194 212 222 213 232 299 23 147 183 224 175 184 185 211 4 143 140 144 134 149 160 164 162 162 124 66 162 159 145 153 121 102 150 155 114 125 172 235 211 77 95 170 179 184 77 105 113 83 45 50 120 154 160 133 129 109 113 164 77 117 251 247 88 29 319 261 258 220 154 286 289 279 277 287 295 304 303 229 125 189 192 67
152 152 163 181 194 200 196 211 216 203 199 117 74 72 209 148 198 221 186 105 168 185 157 151 175 168 169 164 137 150 145 114 174 180 155 161 172 170 187 189 164 171 223 214 190 115 208 204 138 83 6 193 152 107 73 66 224 221 165 161 192 218 204 238 214 178 244 242 76 345 331 248 253 267 292 277 264 250 242 255 272 280 283 263 191 205 226 272
142 153 179 194 194 195 203 215 195 189 173 122 92 27 335 171 199 217 197 162 170 176 94 95 100 154 163 162 153 149 129 140 168 183 148 158 188 193 216 232 181 204 236 185 168 170 205 226 135 153 188 216 193 165 148 174 201 200 179 175 195 195 211 233 201 228 273 265 52 343 279 246 272 288 270 261 266 262 237 239 244 253 264 264 244 236 266 272
336 152 195 212 208 189 199 201 185 179 159 131 110 64 156 199 208 210 206 192 52 28 41 89 107 132 168 172 164 162 161 179 164 161 161 163 192 207 214 229 216 252 53 157 182 188 216 244 177 173 157 173 198 206 165 151 172 199 191 179 206 196 211 229 202 235 265 91 74 345 241 229 250 328 262 258 281 289 251 245 246 249 257 269 278 268 267 270
337 301 248 216 213 206 186 182 180 170 149 126 91 120 186 209 210 209 209 172 81 79 43 55 114 135 185 278 3 191 205 220 161 156 173 176 194 202 198 201 199 189 157 192 203 167 227 263 164 150 129 168 187 209 112 129 163 197 53 187 234 217 184 241 329 134 44 13 206 202 249 242 242 299 285 265 272 268 238 226 234 246 244 254 270 262 250 258
343 326 296 239 218 209 187 173 171 164 146 117 93 177 205 229 207 203 214 130 124 131 117 106 117 140 186 203 210 215 275 65 156 174 195 201 232 213 199 205 193 189 187 190 189 146 213 282 83 53 291 174 184 168 136 170 181 159 169 200 230 345 98 140 194 81 77 268 241 183 251 269 281 282 262 246 256 256 246 243 240 236 218 218 248 254 250 252
330 355 286 238 226 202 190 177 168 165 151 120 151 188 204 238 221 206 232 106 111 128 144 174 187 166 181 189 195 195 192 136 162 195 190 180 239 210 202 229 192 193 204 202 212 215 209 259 60 102 193 158 349 11 104 358 26 144 188 190 145 22 31 185 227 171 178 246 252 194 237 259 273 271 234 181 244 252 254 259 258 252 228 221 229 216 233 256
327 357 263 235 219 196 187 179 169 166 152 144 192 203 193 201 200 185 161 129 93 75 167 201 200 176 186 195 189 171 183 181 167 190 185 171 226 194 183 207 194 199 211 211 242 252 201 233 272 63 224 93 39 215 164 62 19 89 230 178 127 216 206 186 214 215 206 229 241 215 229 246 243 245 257 224 228 245 254 248 249 255 249 244 238 194 209 239
299 222 263 219 202 192 182 174 166 159 155 183 205 214 197 191 186 175 169 153 110 103 173 236 256 350 186 185 162 152 184 188 163 179 192 183 212 188 176 193 201 202 202 188 190 153 165 229 230 73 316 79 122 213 200 170 113 31 272 165 7 259 212 184 190 210 223 219 227 231 225 237 234 226 244 249 238 229 240 238 238 251 251 255 264 232 211 220
206 184 245 207 192 184 174 164 157 163 183 197 212 203 175 176 179 181 179 172 149 155 196 209 205 267 258 122 39 165 198 204 171 188 205 186 204 211 186 190 177 171 185 182 196 182 133 223 229 109 337 209 186 208 205 181 163 171 194 184 191 215 253 271 232 187 240 226 221 241 248 255 249 191 207 242 246 232 234 242 243 250 259 266 268 262 239 214
195 196 220 226 182 172 164 159 167 185 196 218 229 215 188 155 163 176 181 187 205 207 188 191 188 198 203 204 248 153 168 235 195 208 223 199 212 223 193 192 165 123 141 173 197 204 176 201 205 156 179 205 199 205 226 201 181 184 193 191 197 190 159 216 224 178 262 256 225 242 261 265 267 144 197 228 241 246 236 237 247 255 266 261 255 256 251 232
163 188 156 120 171 168 163 174 189 188 215 221 219 200 172 140 157 169 168 189 209 175 145 193 185 188 190 201 212 170 128 215 212 226 256 226 224 227 204 194 168 144 141 161 195 196 151 165 206 192 197 207 178 44 3 291 270 246 234 210 207 198 185 208 219 172 167 208 253 307 270 270 266 139 173 235 256 314 291 238 249 259 257 264 273 257 257 269
182 206 13 102 177 175 170 189 193 196 226 220 207 148 159 163 166 169 175 190 190 164 181 197 185 196 196 197 203 187 172 201 198 210 256 268 247 243 144 127 157 157 159 159 183 164 105 140 219 220 213 121 56 66 85 1 301 245 249 229 212 219 213 219 218 132 193 178 190 224 235 267 271 147 117 287 318 297 274 239 248 265 273 277 281 271 259 269
186 222 309 50 190 189 187 193 194 203 219 217 212 204 203 195 170 171 182 191 189 164 177 196 200 212 213 190 193 189 184 195 204 213 233 252 254 295 81 159 168 178 198 186 161 173 165 187 208 214 226 206 187 200 201 199 198 227 244 202 197 216 196 99 91 189 234 200 198 224 232 252 265 117 112 245 247 249 252 228 229 257 268 263 263 265 251 245
163 206 269 288 204 204 210 207 192 207 211 209 210 212 217 213 184 193 196 190 183 171 181 197 191 188 192 183 178 184 187 196 208 212 222 235 241 5 13 193 185 201 218 109 104 169 187 198 187 198 222 220 214 218 206 188 183 215 244 203 199 204 186 168 187 201 222 216 205 220 236 249 259 243 163 197 213 240 252 237 221 241 255 256 250 249 245 242
170 188 220 200 87 230 239 21 151 218 210 203 209 218 219 219 205 198 205 200 190 187 196 198 167 175 192 196 201 207 205 213 216 206 219 225 212 58 287 212 209 224 241 66 114 149 135 248 208 209 225 230 238 246 184 128 156 192 216 214 206 205 196 192 210 212 217 229 227 220 225 244 256 257 251 239 212 214 241 242 232 238 248 251 247 247 251 259
203 201 187 173 171 205 224 225 209 220 207 194 197 208 215 219 218 189 203 210 196 191 207 200 164 185 196 198 212 221 214 219 220 222 236 236 231 269 217 174 230 247 300 30 183 139 105 249 232 228 239 243 255 260 214 148 185 204 210 213 206 200 199 199 216 223 217 228 239 225 220 235 251 259 261 255 229 203 226 236 238 245 251 250 247 252 257 252
209 217 211 208 213 203 213 214 203 205 205 192 196 209 212 217 220 209 201 210 202 195 208 209 194 202 201 193 205 217 211 215 217 222 236 240 236 250 274 226 227 209 175 193 219 132 148 238 237 238 252 255 261 266 249 188 208 217 214 218 209 193 191 200 217 223 220 223 234 233 231 235 243 252 257 255 241 225 226 226 230 252 264 261 249 243 244 240
207 242 259 258 313 221 217 190 178 196 206 196 201 218 212 212 218 213 188 190 209 202 204 217 212 207 208 206 210 217 209 209 219 221 225 231 231 234 247 248 235 158 162 186 188 149 168 232 240 241 259 263 261 265 260 236 237 244 234 232 226 204 197 203 215 220 222 226 230 239 246 245 239 240 250 257 257 246 236 216 203 228 242 247 243 238 238 237
195 204 193 133 178 242 296 157 163 187 204 203 212 217 208 214 217 209 183 189 206 201 201 220 223 210 209 216 219 226 219 209 220 225 217 221 226 219 227 238 233 173 156 181 190 206 194 219 238 233 251 260 258 259 259 251 240 246 246 239 237 226 212 213 219 222 226 233 238 243 249 253 248 241 254 271 271 240 240 224 216 226 228 231 239 239 242 246
191 194 176 158 198 198 200 166 160 178 197 201 211 209 203 213 212 203 202 204 211 212 202 216 226 218 213 221 224 229 229 222 229 234 224 223 224 210 212 221 210 198 176 165 149 178 202 209 129 173 228 249 249 250 254 255 242 255 259 243 228 224 216 216 222 226 228 233 240 243 245 253 255 246 254 263 247 208 229 226 218 229 229 226 235 237 236 240
191 194 173 193 216 198 191 182 170 192 204 201 211 211 199 208 204 200 222 216 215 229 225 221 232 230 223 228 228 231 238 241 250 258 255 257 258 241 233 235 222 207 182 174 177 168 180 188 188 197 219 245 249 249 254 258 252 249 248 239 231 229 226 224 228 230 229 227 229 235 232 241 253 253 249 251 240 223 234 231 223 235 235 228 231 232 232 236